sat.trackr.live / text

‹ back to catalog

STARLINK-31535

NORAD 59504 · 2024-071W

PAYLOAD ACTIVE UNKNOWN

§ Identity

Operator
Country
US
Launch date
2024-04-13
Launch site
AFETR
Launch vehicle
Mass (kg)
RCS (m²)

Purposes: comms

External: N2YO · Heavens-Above · Gunter

§ Orbital elements

Epoch: 2026-05-25T01:07:18.362784Z

Period
94.27 min
Inclination
43.0017°
Eccentricity
0.0001180
Mean motion
15.27580192 rev/d
Perigee alt
482.2 km
Apogee alt
483.9 km
Semi-major
6,861.2 km
B*
4.7401e-5
RAAN
276.2843°
Arg perigee
273.7790°
Mean anomaly
86.2926°
Rev number
11,979

§ Raw data

STARLINK-315351 59504U 24071W   26145.04674031  .00001043  00000+0  47401-4 0  99972 59504  43.0017 276.2843 0001180 273.7790  86.2926 15.27580192119797

JSON: /api/v1/satellites/59504 · /tle

For live sub-satellite position, see the globe view (requires WebGL).

§ Visibility from observer

Set your observer location to see the next 7 days of passes ≥ 10°. The values pass through the URL so the page stays shareable.

No JS? Fill the form by hand. The geolocation button needs JavaScript.